Location: Unspecified
(0.0000°N, 0.0000°E)
Time: 16:33:43
(UTC+00:00)

GALILEO 11 (268) - Visible Passes

Search period start: 30 November 2022 00:00
Search period end: 10 December 2022 00:00
Orbit: 23219 x 23225 km, 55.2° (Epoch: 28 November)

Date Brightness Start Highest point End Pass type
(mag) Time Alt. Az. Time Alt. Az. Time Alt. Az.
01 Dec ? 03:03:56 10° SSW 06:07:32 58° W 15:30:58 10° SE visible
02 Dec ? 13:56:38 10° NNW 17:19:51 71° W 02:08:20 10° NE visible
04 Dec ? 00:45:42 10° SSW 04:32:20 84° W 08:50:38 10° NNE visible
05 Dec ? 11:13:55 10° NW 15:44:36 82° E 19:26:42 10° SSE visible
06 Dec ? 18:00:55 10° NW 19:48:18 21° W 06:16:43 10° NNE daylight
08 Dec ? 04:41:27 10° SW 07:01:45 33° W 17:09:45 10° SSE visible
